Temp
-0 0 1 1 1 1 2 3 3 3 4 4 4 4 4 5 4 4 5 5 5 5 5 5 6 6 6 7 8 8 8 8 9 9 9 8 9 7 7 8 9 9 10 10 10 10 10
-3 -1 -0 -0 1 0 1 3 3 3 3 3 4 4 4 4 4 4 4 4 5 5 5 5 5 6 6 7 7 9 8 8 8 8 9 8 8 8 6 7 7 8 8 9 9 8 8
-4 -4 -2 -1 0 -0 -0 -0 2 3 3 3 3 4 4 4 3 3 4 4 4 4 4 4 5 5 6 8 7 8 8 8 8 8 8 7 7 7 6 6 7 7 7 7 7 8 8
-5 -5 -4 -3 -2 -0 -1 -0 -0 2 3 3 3 3 3 3 3 3 3 3 3 3 3 4 4 4 6 7 6 7 7 7 7 8 8 7 7 7 7 6 6 6 6 7 9 9 10
-6 -6 -5 -4 -4 -2 -1 -1 -0 0 2 3 3 2 3 3 3 2 2 2 3 3 3 3 3 3 5 7 7 7 7 8 7 7 8 8 7 6 6 5 5 6 7 8 9 11 10
-7 -6 -6 -5 -5 -4 -4 -1 -1 -0 1 2 3 3 2 2 2 2 2 2 2 2 2 2 3 2 5 7 7 7 7 7 7 6 7 8 6 5 5 5 6 8 9 10 10 11 11
-9 -7 -6 -6 -5 -5 -5 -3 -3 -2 -0 0 2 3 3 2 1 2 2 1 1 1 1 3 4 5 4 4 3 6 6 6 6 5 7 7 5 4 5 6 6 7 8 9 9 10 10
-9 -9 -7 -7 -6 -6 -5 -5 -5 -4 -2 -1 -0 1 3 2 2 2 2 3 4 2 2 3 4 5 4 3 2 4 5 5 6 6 6 4 4 5 6 7 7 7 7 8 8 9 9
-9 -10 -9 -7 -6 -6 -5 -5 -4 -5 -3 -1 -1 -1 1 2 2 1 3 4 2 0 0 1 3 4 4 3 3 3 4 5 5 5 4 5 6 6 6 7 7 8 8 8 8 8 8
-10 -9 -9 -8 -7 -6 -6 -5 -4 -3 -3 -3 -0 -1 -1 -1 0 1 2 1 -1 -1 -2 -0 1 4 4 1 1 3 3 4 4 4 4 5 6 7 7 6 7 7 7 7 7 7 7
-9 -9 -9 -8 -7 -7 -6 -6 -5 -3 -4 -3 -3 -1 -1 -1 -1 -0 0 -1 -2 -2 -2 2 3 2 4 4 3 5 4 2 3 4 4 5 5 5 6 6 6 6 6 7 7 6 6
-9 -9 -9 -8 -8 -7 -7 -6 -5 -5 -4 -3 -4 -2 -1 -2 -1 -1 -1 -2 -3 -2 -3 1 2 1 1 4 3 3 4 2 3 3 4 4 4 4 5 5 6 6 6 6 6 6 6
-9 -9 -9 -9 -8 -8 -7 -7 -6 -5 -5 -4 -3 -3 -3 -2 -1 -1 -1 -2 -2 -3 -2 -0 -0 0 0 1 1 1 2 2 2 1 2 3 3 4 5 5 5 5 5 5 5 5 6
-10 -9 -9 -9 -8 -8 -8 -7 -6 -6 -5 -4 -3 -3 -3 -2 -2 -2 -1 -3 -3 -2 -2 2 2 -0 1 1 1 1 3 2 2 2 5 3 3 4 4 4 5 4 5 5 5 7 9
-10 -9 -9 -9 -8 -8 -8 -7 -6 -6 -5 -5 -5 -4 -3 -3 -2 -2 -2 -3 -2 -1 -0 1 1 0 0 1 2 1 2 2 2 2 3 5 5 6 5 4 4 5 4 5 6 5 6
-10 -10 -9 -9 -9 -9 -9 -8 -7 -6 -6 -5 -5 -5 -4 -3 -3 -2 -2 -3 -3 -1 0 -1 1 1 1 2 2 1 2 2 2 2 3 4 5 5 4 3 3 4 5 4 3 2 3
-11 -11 -10 -11 -10 -10 -9 -9 -7 -6 -5 -5 -7 -5 -4 -3 -3 -2 -2 -3 -2 -1 -1 -0 1 2 2 2 2 2 3 3 2 3 3 3 3 3 2 2 3 2 3 3 2 2 3
-11 -11 -10 -10 -10 -9 -9 -9 -7 -6 -5 -6 -7 -7 -4 -4 -4 -3 -3 -3 -2 -2 -2 -1 -1 1 2 3 3 3 3 3 3 4 3 2 0 0 1 1 2 2 2 1 0 -0 -0
-11 -11 -10 -10 -9 -9 -8 -8 -7 -6 -6 -6 -7 -6 -5 -4 -4 -3 -3 -3 -2 -2 -2 -2 -1 -1 0 1 2 2 3 1 2 2 1 1 -1 -2 -2 -2 -1 -1 0 0 -1 -1 -1
-11 -11 -10 -10 -9 -9 -8 -7 -7 -6 -6 -6 -7 -7 -6 -5 -4 -4 -3 -3 -3 -3 -2 -1 -1 -0 -1 -1 -0 -0 -0 -1 -2 -2 -1 -1 -1 -1 -0 -0 -2 -2 -1 -2 -2 -2 -1
-11 -11 -9 -9 -9 -8 -8 -7 -7 -6 -5 -6 -6 -6 -5 -4 -4 -4 -3 -3 -3 -3 -3 -2 -2 -1 -1 -2 -2 -2 -2 -3 -4 -2 -2 -1 -3 -3 -3 -3 -3 -2 -2 -2 -3 -2 -3
-11 -11 -11 -9 -9 -9 -8 -7 -6 -6 -6 -6 -6 -5 -5 -4 -4 -4 -4 -4 -3 -3 -1 -2 -2 -1 -1 -1 -0 -2 -1 -2 -3 -5 -4 -4 -5 -4 -5 -5 -4 -3 -2 -2 -2 -2 -3
-11 -10 -11 -9 -9 -8 -7 -6 -3 -3 -3 -6 -5 -4 -4 -5 -4 -4 -4 -4 -3 -2 -2 -1 -1 -2 -2 -2 -2 -3 -4 -4 -4 -5 -5 -4 -6 -6 -6 -5 -5 -4 -4 -3 -3 -2 -2
-11 -10 -10 -9 -9 -8 -7 -7 -5 -3 -0 -2 -3 -5 -5 -5 -4 -4 -4 -4 -3 -3 -2 -3 -3 -2 -3 -3 -4 -5 -5 -5 -4 -5 -5 -5 -6 -7 -6 -4 -5 -3 -2 -3 -3 -3 -3
-10 -10 -9 -10 -9 -8 -8 -7 -6 -6 -6 -6 -6 -6 -5 -5 -5 -5 -5 -4 -5 -4 -4 -3 -4 -4 -5 -4 -5 -6 -6 -7 -7 -6 -6 -7 -7 -6 -6 -5 -3 -3 -3 -3 -4 -3 -4
-10 -10 -10 -10 -9 -8 -8 -7 -6 -6 -6 -5 -6 -5 -5 -4 -6 -5 -4 -4 -4 -4 -6 -5 -5 -5 -5 -5 -6 -8 -8 -8 -7 -7 -7 -7 -7 -6 -6 -4 -3 -3 -4 -4 -4 -5 -5
-10 -10 -10 -10 -9 -8 -8 -7 -7 -7 -6 -6 -5 -5 -5 -5 -6 -5 -4 -5 -5 -5 -6 -6 -6 -6 -6 -6 -7 -7 -8 -7 -8 -8 -8 -7 -7 -7 -6 -5 -4 -3 -4 -5 -5 -4 -5
-10 -10 -10 -10 -10 -9 -8 -8 -7 -7 -7 -6 -6 -5 -5 -5 -7 -6 -6 -5 -6 -5 -6 -7 -7 -8 -7 -7 -7 -7 -7 -7 -6 -6 -7 -7 -7 -7 -7 -6 -5 -4 -5 -5 -5 -5 -6
-10 -10 -10 -10 -10 -10 -9 -8 -8 -7 -7 -6 -6 -6 -5 -6 -7 -6 -6 -5 -5 -5 -4 -7 -7 -8 -8 -7 -7 -7 -6 -5 -6 -6 -6 -6 -6 -6 -6 -6 -6 -5 -6 -6 -6 -7 -7
Height
2997 2999 3003 3007 3012 3017 3028 3033 3037 3043 3049 3053 3059 3065 3070 3075 3079 3083 3087 3091 3095 3098 3101 3103 3105 3107 3109 3110 3115 3114 3117 3119 3122 3124 3126 3127 3129 3131 3131 3133 3134 3133 3133 3133 3131 3131 3130
2980 2984 2988 2993 2996 2998 3009 3018 3025 3032 3038 3044 3049 3053 3060 3065 3070 3074 3079 3084 3088 3091 3094 3096 3098 3101 3101 3101 3109 3110 3113 3115 3117 3119 3121 3123 3124 3127 3126 3126 3127 3127 3125 3125 3124 3123 3122
2968 2970 2973 2977 2981 2984 2988 3002 3007 3015 3022 3031 3038 3044 3050 3056 3062 3067 3071 3076 3080 3084 3087 3089 3091 3092 3090 3096 3100 3103 3107 3110 3111 3114 3116 3118 3118 3120 3122 3121 3122 3120 3117 3116 3117 3116 3116
2956 2958 2960 2962 2966 2969 2977 2984 2992 2998 3009 3016 3025 3033 3040 3046 3052 3058 3063 3067 3072 3076 3079 3082 3083 3083 3075 3091 3093 3096 3101 3104 3106 3108 3110 3113 3111 3113 3114 3114 3113 3115 3114 3109 3109 3111 3112
2945 2946 2948 2950 2952 2954 2960 2966 2974 2982 2992 3002 3012 3021 3029 3034 3043 3049 3054 3058 3062 3066 3070 3073 3076 3075 3070 3080 3084 3094 3094 3098 3100 3102 3104 3105 3105 3106 3108 3109 3109 3109 3105 3106 3106 3108 3108
2935 2936 2937 2939 2941 2944 2947 2951 2960 2970 2977 2981 2998 3007 3017 3024 3031 3038 3044 3048 3052 3056 3060 3061 3065 3069 3072 3075 3079 3083 3088 3091 3093 3095 3095 3098 3097 3099 3100 3104 3099 3102 3101 3101 3102 3104 3104
2926 2926 2927 2928 2930 2933 2937 2940 2947 2954 2963 2971 2982 2995 3005 3012 3018 3025 3030 3036 3042 3043 3042 3047 3054 3060 3069 3069 3069 3076 3080 3084 3087 3087 3089 3089 3090 3090 3092 3096 3098 3099 3098 3096 3096 3098 3098
2918 2917 2918 2919 2920 2922 2925 2929 2932 2941 2947 2957 2965 2980 2989 2998 3006 3012 3019 3019 3027 3041 3039 3042 3047 3048 3059 3062 3064 3070 3070 3077 3079 3079 3085 3089 3081 3086 3091 3093 3094 3094 3093 3092 3094 3096 3096
2910 2909 2908 2908 2910 2912 2914 2917 2922 2928 2936 2945 2953 2965 2969 2987 2992 2997 3001 3012 3023 3034 3033 3032 3035 3038 3047 3055 3055 3060 3063 3068 3071 3075 3078 3078 3081 3082 3084 3088 3088 3087 3087 3089 3089 3089 3088
2901 2900 2899 2899 2900 2902 2905 2908 2912 2918 2925 2933 2938 2954 2963 2967 2975 2981 2988 3008 3018 3024 3027 3017 3021 3018 3031 3045 3039 3054 3056 3064 3066 3067 3073 3071 3076 3078 3079 3080 3084 3079 3084 3085 3084 3084 3079
2892 2891 2891 2891 2892 2893 2895 2898 2903 2908 2912 2919 2925 2940 2950 2955 2958 2968 2983 2997 3008 3016 3023 3006 3005 3014 3020 3022 3033 3036 3049 3051 3056 3060 3065 3058 3063 3068 3069 3071 3076 3071 3079 3080 3080 3079 3076
2884 2883 2883 2882 2883 2884 2885 2888 2892 2897 2902 2909 2917 2924 2935 2942 2948 2963 2975 2984 2997 3003 2995 2988 2992 2995 3004 3011 3019 3035 3039 3044 3052 3055 3053 3054 3058 3060 3064 3066 3068 3073 3075 3076 3077 3078 3065
2877 2876 2875 2875 2874 2874 2875 2878 2881 2885 2891 2898 2906 2914 2923 2932 2937 2949 2955 2967 2973 2968 2973 2969 2976 2984 2994 2999 3012 3022 3029 3032 3034 3041 3037 3047 3044 3050 3058 3058 3062 3064 3070 3072 3071 3070 3052
2868 2867 2866 2865 2865 2864 2865 2866 2870 2873 2879 2888 2895 2903 2910 2919 2931 2934 2939 2950 2943 2949 2952 2961 2973 2979 2983 2996 3002 3008 3019 3019 3022 3024 3035 3035 3035 3040 3043 3045 3053 3054 3059 3055 3057 3053 3045
2859 2857 2855 2854 2853 2852 2852 2853 2857 2862 2868 2878 2884 2889 2895 2907 2919 2921 2927 2918 2916 2932 2941 2958 2966 2970 2979 2988 2995 3002 3002 3005 3008 3014 3024 3025 3021 3029 3032 3038 3046 3048 3045 3053 3051 3050 3049
2849 2847 2844 2842 2840 2839 2838 2838 2842 2849 2857 2866 2871 2877 2880 2896 2907 2909 2905 2900 2913 2926 2936 2954 2955 2959 2964 2974 2985 2988 2995 2992 2999 3005 3014 3018 3019 3021 3025 3032 3036 3039 3044 3047 3048 3048 3047
2840 2836 2833 2831 2829 2826 2825 2825 2827 2835 2845 2855 2859 2861 2869 2885 2894 2887 2880 2894 2905 2917 2933 2939 2943 2953 2959 2966 2970 2973 2975 2985 2988 2996 3006 3013 3014 3017 3020 3021 3025 3029 3031 3035 3040 3039 3036
2830 2827 2823 2820 2816 2813 2812 2810 2812 2822 2832 2838 2843 2846 2857 2872 2873 2870 2871 2882 2898 2909 2925 2930 2934 2945 2952 2960 2962 2967 2971 2977 2980 2987 2992 3002 3005 3010 3012 3020 3023 3022 3026 3029 3030 3031 3032
2822 2818 2814 2810 2804 2800 2796 2794 2798 2807 2818 2825 2828 2838 2848 2854 2852 2857 2867 2876 2887 2898 2908 2919 2924 2935 2947 2956 2958 2963 2968 2969 2974 2978 2983 2988 2995 3004 3011 3012 3011 3012 3017 3020 3022 3026 3024
2814 2810 2805 2800 2794 2785 2779 2782 2787 2796 2806 2814 2822 2826 2834 2838 2848 2854 2862 2867 2877 2888 2898 2908 2918 2930 2938 2941 2945 2953 2958 2961 2968 2974 2977 2981 2984 2987 2987 2992 3000 3006 3010 3015 3016 3018 3019
2807 2803 2797 2790 2783 2774 2772 2773 2778 2787 2795 2802 2804 2805 2811 2816 2831 2841 2853 2860 2865 2878 2886 2898 2912 2918 2923 2931 2934 2941 2947 2952 2959 2963 2970 2975 2978 2982 2985 2991 2997 3001 3005 3009 3009 3012 3013
2801 2796 2790 2783 2774 2767 2762 2761 2763 2771 2783 2783 2783 2794 2804 2815 2826 2836 2843 2847 2856 2868 2876 2887 2899 2905 2914 2919 2920 2924 2932 2941 2945 2954 2959 2964 2972 2977 2983 2989 2994 2997 3000 3003 3004 3005 3004
2796 2790 2784 2777 2768 2759 2751 2745 2736 2734 2751 2755 2771 2789 2803 2800 2813 2826 2830 2840 2850 2861 2869 2881 2890 2900 2905 2912 2919 2925 2926 2931 2939 2944 2953 2961 2968 2976 2983 2986 2994 2993 2990 2993 2995 2997 2999
2792 2787 2782 2774 2765 2754 2743 2727 2699 2673 2702 2733 2757 2777 2793 2793 2804 2818 2830 2841 2849 2859 2870 2877 2886 2893 2895 2902 2912 2921 2928 2935 2940 2947 2953 2960 2968 2977 2982 2986 2989 2983 2984 2986 2988 2989 2991
2789 2784 2780 2773 2765 2754 2742 2729 2716 2704 2715 2736 2758 2775 2784 2796 2804 2816 2827 2837 2851 2857 2867 2872 2879 2887 2886 2901 2911 2920 2931 2939 2945 2948 2953 2959 2967 2972 2977 2979 2978 2979 2980 2981 2982 2984 2985
2787 2783 2779 2773 2768 2760 2749 2740 2732 2730 2735 2746 2759 2773 2785 2794 2805 2811 2818 2829 2837 2851 2864 2868 2880 2884 2888 2895 2901 2913 2923 2932 2941 2947 2952 2959 2965 2966 2970 2974 2973 2970 2972 2975 2978 2981 2979
2785 2782 2779 2776 2771 2766 2758 2751 2746 2747 2749 2755 2763 2772 2784 2796 2808 2813 2817 2822 2836 2845 2857 2865 2872 2882 2886 2892 2902 2911 2918 2925 2932 2938 2945 2953 2958 2960 2964 2967 2966 2968 2970 2970 2978 2983 2975
2784 2782 2781 2779 2775 2773 2768 2763 2759 2757 2757 2759 2761 2771 2777 2788 2804 2813 2818 2825 2835 2843 2846 2864 2873 2881 2886 2896 2901 2905 2911 2921 2927 2933 2935 2945 2950 2954 2959 2959 2959 2960 2967 2968 2970 2971 2972
2784 2783 2783 2782 2779 2777 2776 2773 2770 2769 2767 2768 2770 2776 2782 2789 2805 2817 2825 2832 2841 2847 2850 2863 2869 2874 2882 2894 2902 2904 2909 2918 2921 2928 2936 2943 2936 2941 2945 2946 2951 2954 2957 2960 2963 2965 2966
Wind_Speed
60 67 74 72 73 79 65 59 57 55 54 52 51 49 48 46 44 42 40 38 37 35 32 32 31 30 28 30 25 23 15 17 17 15 13 14 16 14 18 19 20 26 27 29 30 27 26
58 60 65 74 70 75 72 64 63 56 57 54 53 51 51 49 46 43 41 40 38 36 34 34 33 33 32 35 26 28 24 22 20 20 19 19 21 21 25 27 25 25 26 27 25 25 24
55 56 60 63 75 72 68 70 67 63 60 58 55 53 53 51 47 44 43 41 39 38 36 36 35 35 39 35 30 30 27 26 24 25 23 21 24 24 18 16 16 22 27 26 28 28 25
48 50 54 57 59 68 70 68 61 60 64 64 60 56 53 50 49 45 43 42 40 39 39 38 37 38 46 32 32 33 28 25 25 28 28 28 33 33 31 30 28 22 25 32 27 25 22
43 42 46 50 54 60 64 75 75 54 67 65 62 59 56 51 50 46 45 43 43 41 40 40 39 40 46 36 36 27 30 29 27 29 32 34 33 32 29 22 23 22 31 28 24 14 13
40 40 41 45 47 53 53 59 75 73 56 60 69 61 58 53 51 47 48 46 44 43 43 44 43 38 37 21 24 30 31 30 28 29 29 30 31 27 23 24 29 23 25 24 24 14 16
31 39 39 40 40 47 51 54 61 81 61 55 66 65 60 55 52 52 54 51 48 50 53 52 45 41 17 10 25 29 23 21 24 25 25 25 23 29 28 26 27 28 28 29 24 21 23
28 28 36 38 40 39 48 48 46 49 73 57 45 52 61 54 58 56 57 57 55 39 46 49 47 48 38 22 26 26 27 27 29 28 23 18 27 22 20 21 25 25 26 27 27 24 24
29 27 26 37 37 39 40 42 46 46 57 76 75 60 52 59 54 61 64 57 50 43 41 40 45 46 45 38 34 25 31 26 27 26 25 29 22 18 23 24 25 27 28 27 29 26 26
34 33 31 31 34 36 40 39 44 47 36 36 69 67 52 41 49 60 63 53 46 40 28 38 45 56 45 38 47 39 29 28 31 29 26 31 27 26 20 24 22 32 24 24 23 23 26
27 29 31 33 31 33 37 41 44 54 45 39 50 81 59 50 49 59 65 52 47 35 7 23 37 42 38 55 29 39 39 34 32 31 29 37 26 29 32 35 29 32 21 21 21 25 29
24 24 26 29 32 33 34 38 43 47 58 47 49 59 74 61 47 61 51 50 48 33 13 22 24 41 36 50 48 21 29 40 31 32 37 36 32 33 31 26 30 29 26 25 23 19 18
28 27 28 29 31 32 36 37 41 44 52 39 42 40 66 64 55 51 53 58 47 33 32 25 26 33 40 41 45 41 33 45 45 31 45 38 39 33 32 25 22 21 21 9 11 10 11
30 31 32 33 36 36 36 39 41 44 45 54 43 33 64 60 50 50 63 66 24 33 56 22 33 28 42 37 42 45 41 48 51 35 25 38 35 42 35 37 26 26 31 16 9 11 15
32 33 35 37 37 40 40 41 43 44 45 47 51 47 42 56 54 58 68 65 39 57 69 36 22 32 37 42 28 41 52 50 55 51 35 25 33 17 41 35 34 29 39 32 28 28 16
32 35 36 36 37 37 44 42 44 45 45 48 56 54 45 48 50 65 73 55 59 59 31 52 32 32 41 43 41 44 44 44 47 48 45 28 19 21 27 29 26 33 25 28 19 5 8
33 34 33 34 34 35 35 40 46 45 46 47 52 59 60 49 53 75 78 59 56 68 45 47 62 35 36 41 49 49 38 23 45 44 43 36 19 21 23 26 29 28 20 21 18 15 3
33 33 33 34 39 32 36 43 47 44 44 47 53 61 64 57 55 74 74 63 62 57 60 40 48 54 39 42 49 42 49 34 25 39 49 36 20 23 32 17 22 29 27 25 13 9 12
31 32 33 38 31 33 37 37 42 39 38 45 54 59 60 57 63 58 53 64 62 55 57 59 43 57 46 42 38 47 37 26 31 40 42 40 19 14 13 19 22 23 24 22 25 22 20
28 29 29 36 30 27 28 28 32 36 40 40 48 53 57 58 61 61 59 56 52 57 60 60 63 56 43 36 33 43 33 29 29 32 35 34 26 32 18 13 18 26 22 21 24 18 21
26 26 29 25 28 14 22 24 29 40 46 45 58 44 52 57 58 67 57 58 61 53 56 59 59 62 55 36 36 37 41 34 34 36 35 34 25 27 19 16 11 17 24 24 24 31 20
25 24 31 23 22 21 24 36 33 48 51 61 53 56 47 58 61 59 62 50 70 57 57 63 59 61 60 54 58 56 57 51 44 39 38 31 17 21 15 13 13 15 19 22 25 28 32
24 22 29 23 26 27 19 23 40 62 69 74 79 69 39 52 61 61 57 51 58 59 57 61 65 52 53 53 45 41 49 47 40 46 35 30 26 20 7 13 12 18 27 31 32 33 31
21 20 25 20 25 24 19 33 23 23 77 88 86 75 52 43 57 67 50 50 53 54 49 50 55 53 46 50 41 38 40 33 23 35 35 29 23 14 9 15 8 13 7 14 23 26 26
19 17 18 19 24 21 20 31 35 54 73 85 76 62 54 41 48 53 43 55 44 48 39 44 47 44 41 43 38 29 26 24 17 22 18 16 22 11 10 20 4 8 11 13 15 19 19
17 15 13 18 21 17 20 22 22 38 43 69 69 66 48 50 45 56 57 53 57 51 40 41 41 45 40 43 38 19 9 15 15 18 18 19 17 11 16 6 7 8 12 14 10 12 13
14 13 10 14 14 19 20 22 20 18 20 40 54 65 50 45 36 50 53 53 51 49 49 50 54 53 45 35 21 19 11 16 20 20 26 24 22 24 20 13 9 11 7 10 9 7 4
11 8 7 9 12 16 19 21 21 18 14 30 45 46 48 48 51 45 48 52 55 50 56 52 49 35 31 24 15 11 16 15 17 21 31 26 22 20 19 15 16 12 15 20 15 15 12
6 4 4 8 10 10 16 19 22 21 21 20 32 36 42 52 45 40 41 41 36 38 44 49 35 38 23 18 13 11 23 16 20 22 19 18 23 19 19 15 8 17 15 13 17 17 18
Wind_Direction
253 249 248 251 245 246 238 236 232 235 235 231 230 232 232 234 235 235 237 239 242 243 244 247 248 249 248 247 235 241 230 230 231 231 236 255 265 268 264 268 269 265 268 269 268 270 273
260 253 251 246 249 250 243 233 233 232 235 234 232 229 232 233 234 235 237 240 241 244 244 247 249 250 250 247 242 235 228 235 241 247 253 264 269 271 270 267 264 261 267 262 264 267 268
263 260 256 253 245 248 249 242 235 227 226 232 233 231 231 232 233 235 238 239 241 243 246 247 249 249 248 240 242 238 237 244 250 252 263 277 269 264 262 275 275 258 266 269 264 272 271
260 261 258 256 251 247 243 235 236 225 222 225 228 232 231 230 232 233 236 239 240 242 245 248 248 251 250 242 239 239 242 247 252 260 266 271 277 273 263 260 256 272 272 273 279 273 270
257 257 255 255 253 250 245 243 233 231 228 223 225 228 229 228 230 232 234 236 238 240 243 247 248 252 254 245 240 240 245 248 255 259 265 271 269 265 264 261 268 259 259 265 276 268 233
258 257 258 253 251 249 249 246 239 234 232 221 221 221 228 226 227 228 233 234 236 239 240 241 243 246 247 256 244 244 243 249 251 253 263 269 257 254 256 235 241 253 253 260 261 258 256
271 257 257 255 254 247 244 239 241 241 233 229 223 218 222 225 224 225 228 228 229 234 235 236 241 247 237 246 231 239 228 227 243 242 252 260 242 230 240 240 247 255 262 269 272 281 287
269 270 258 257 254 250 245 244 249 236 244 223 228 224 224 216 224 225 228 230 234 240 246 244 242 245 239 214 241 229 233 235 238 242 243 223 228 238 239 244 242 251 256 263 270 274 277
264 263 269 256 255 253 250 245 240 239 239 245 232 237 230 220 226 223 228 230 233 231 244 248 246 243 240 232 225 228 233 234 236 225 215 224 237 251 229 239 241 246 253 263 273 280 276
265 266 267 270 259 256 251 251 231 223 218 241 241 232 235 231 233 225 222 222 223 225 235 248 244 243 225 216 241 218 235 234 219 224 224 241 234 232 229 239 244 249 249 261 270 281 279
273 271 271 269 269 257 253 247 237 232 226 221 233 235 222 227 228 234 217 214 211 212 234 244 234 234 234 226 233 237 219 218 225 224 216 226 215 232 245 244 243 248 249 252 270 276 284
281 279 279 275 272 266 259 252 245 238 230 230 233 234 228 231 232 229 233 209 201 194 215 230 214 210 211 227 228 225 214 218 233 224 233 238 241 232 245 249 239 247 251 258 262 264 265
282 280 280 279 277 274 265 256 248 246 236 228 222 232 232 230 235 226 226 200 189 199 212 225 208 203 207 210 211 208 208 207 207 207 228 230 234 231 229 238 231 224 218 228 228 221 248
285 285 282 279 274 274 273 262 252 246 241 231 215 218 220 233 230 230 216 192 200 199 210 211 212 194 202 197 213 208 208 213 213 215 234 223 238 225 221 229 216 212 204 197 223 225 253
289 288 287 285 280 278 272 267 253 243 242 228 230 219 217 224 221 228 212 193 192 206 214 198 191 192 200 204 210 206 210 214 214 208 216 223 233 230 223 222 204 217 219 221 261 276 287
291 291 290 287 283 278 275 264 250 242 237 232 222 224 217 217 216 218 210 201 204 211 214 201 200 202 196 198 199 197 201 221 216 224 205 226 239 214 195 199 216 218 227 212 216 192 224
296 296 292 291 284 282 269 261 250 238 232 230 227 223 222 216 205 215 205 208 211 218 201 204 208 207 205 197 200 198 202 216 211 210 202 216 213 191 189 197 195 205 215 205 216 223 245
298 295 294 291 294 280 271 258 250 235 226 225 225 222 218 215 211 204 205 204 212 212 204 203 210 214 212 205 205 204 207 214 216 197 194 199 197 189 198 195 213 217 213 206 202 198 217
299 297 299 302 295 288 272 248 238 226 215 225 222 221 219 222 212 206 209 208 213 209 207 203 207 207 208 213 216 206 206 201 191 191 184 189 192 143 189 224 202 202 205 205 218 225 219
304 303 305 304 317 286 275 235 228 215 211 217 215 213 216 216 225 213 209 203 204 211 212 207 209 208 203 210 210 195 203 199 181 184 196 196 200 198 194 191 195 206 206 212 220 215 237
311 310 304 305 325 308 306 233 227 209 194 193 204 206 206 198 203 209 209 206 200 195 205 208 207 211 201 193 190 188 198 177 174 188 196 196 202 196 210 190 173 196 208 215 221 234 228
313 312 313 331 330 327 331 226 232 222 214 205 212 204 202 203 207 200 203 199 203 197 202 205 208 208 209 212 204 196 199 199 183 178 185 180 156 181 181 187 205 218 223 226 229 237 248
317 319 323 338 343 328 323 309 272 254 228 218 198 209 214 196 200 198 195 199 201 202 204 216 214 211 202 207 207 204 194 189 199 185 176 188 167 159 179 208 227 250 234 232 236 239 245
318 328 326 348 350 353 347 351 316 213 206 203 202 202 196 184 199 200 200 202 202 200 206 204 207 207 200 201 191 185 184 186 197 194 191 181 172 157 160 160 214 240 213 229 239 243 244
324 333 329 346 360 13 14 17 146 147 170 186 192 193 194 188 193 189 193 198 194 190 198 210 200 194 172 187 162 133 133 134 156 160 159 180 167 154 171 195 230 193 204 237 224 231 233
327 335 336 345 9 34 45 36 71 173 169 188 189 197 191 191 184 198 195 201 195 190 177 182 182 180 174 173 151 150 162 157 160 164 179 177 193 170 186 203 223 163 189 203 197 240 232
325 335 345 354 15 40 58 69 72 99 190 202 190 195 193 181 181 192 193 182 184 171 155 155 156 158 169 160 143 149 136 149 157 167 180 184 190 204 205 212 240 207 193 222 203 201 228
324 335 349 15 8 38 65 71 78 93 125 187 178 192 191 175 157 171 186 174 161 168 153 157 154 157 163 156 145 135 152 164 167 179 179 180 177 199 213 222 242 210 214 228 247 251 269
328 346 20 41 45 34 59 76 82 95 106 149 155 162 168 156 152 170 170 178 184 185 183 163 167 153 163 156 152 134 154 168 165 167 192 189 191 184 193 213 216 227 217 231 254 260 253